Weather History for Prague, Czech Republic

Change the Weather History Date:

Tuesday, May 8, 2012

  Actual Average Record
Temperature  
Mean Temperature 56 °F -  
Max Temperature 68 °F 67 °F 80 °F (2003)
Min Temperature 44 °F 47 °F 33 °F (1997)
Degree Days  
Heating Degree Days 9    
Growing Degree Days 6 (Base 50)    
Moisture  
Dew Point 46 °F    
Average Humidity 73    
Maximum Humidity 100    
Minimum Humidity 43    
Precipitation  
Precipitation 0.00 in 0.10 in - ()
Sea Level Pressure  
Sea Level Pressure 30.05 in    
Wind  
Wind Speed 5 mph ()    
Max Wind Speed 13 mph    
Max Gust Speed -    
Visibility 6.1 miles    
Events      
Averages and records for this station are not official NWS values.
T = Trace of Precipitation, MM = Missing Value Source: Averaged Metar Reports

Daily Weather History Graph

Daily Weather History Graph

Search for Another Location

Airport:

Trip Planner

Search our weather history database for the weather conditions in past years. The results will help you decide how hot, cold, wet, or windy it might be!

Date:

Astronomy

May. 08, 2012 Rise Set
Actual Time 5:26 AM CEST 8:33 PM CEST
Civil Twilight 4:48 AM CEST 9:11 PM CEST
Nautical Twilight 3:58 AM CEST 10:01 PM CEST
Astronomical Twilight 2:56 AM CEST 11:05 PM CEST
Moon 11:36 PM CEST (5/8) 7:06 AM CEST (5/8)
Length of Visible Light 16h 22m
Length of Day
15h 06m
Waning Gibbous, 92% of the Moon is Illuminated
May 8
Waning Gibbous
May 12
Last Quarter
May 21
New
May 28
First Quarter
Jun 4
Full

Hourly Weather History & Observations

Time (CEST) Temp. Windchill Dew Point Humidity Pressure Visibility Wind Dir Wind Speed Gust Speed Precip Events Conditions
12:00 AM 50.0 °F - 46.4 °F 87% 30.09 in - ENE 4.6 mph - N/A   Clear
12:30 AM 46.4 °F 43.5 °F 44.6 °F 93% 30.09 in - ENE 5.8 mph - N/A   Clear
1:00 AM 48.2 °F - 44.6 °F 87% 30.09 in - NE 3.5 mph - N/A   Clear
1:30 AM 46.4 °F 42.9 °F 44.6 °F 93% 30.09 in - East 6.9 mph - N/A   Clear
2:00 AM 47 °F - 44 °F 86% 30.11 in 9 mi ESE 6.7 mph - -   Scattered Clouds
2:00 AM 46.4 °F 43.5 °F 44.6 °F 93% 30.09 in - East 5.8 mph - N/A   Clear
2:30 AM 46.4 °F 44.3 °F 44.6 °F 93% 30.06 in - East 4.6 mph - N/A   Clear
3:00 AM 44.6 °F 42.2 °F 42.8 °F 93% 30.06 in - ESE 4.6 mph - N/A   Clear
3:30 AM 44.6 °F - 42.8 °F 93% 30.09 in - Variable 2.3 mph - N/A   Clear
4:00 AM 46.4 °F 43.5 °F 42.8 °F 87% 30.06 in - East 5.8 mph - N/A   Clear
4:30 AM 46.4 °F 43.5 °F 44.6 °F 93% 30.06 in - ESE 5.8 mph - N/A   Clear
5:00 AM 46.4 °F 43.5 °F 44.6 °F 93% 30.06 in 5.6 mi NNW 5.8 mph - N/A   Unknown
5:30 AM 46.4 °F - 44.6 °F 93% 30.06 in 4.3 mi Variable 2.3 mph - N/A   Unknown
6:00 AM 46.4 °F 45.2 °F 44.6 °F 93% 30.06 in 3.1 mi North 3.5 mph - N/A   Mist
6:30 AM 46.4 °F 45.2 °F 46.4 °F 100% 30.06 in 3.1 mi NNE 3.5 mph - N/A   Mist
7:00 AM 46.4 °F 44.3 °F 46.4 °F 100% 30.06 in 3.1 mi ENE 4.6 mph - N/A   Partly Cloudy
7:30 AM 48.2 °F - 46.4 °F 93% 30.09 in 3.7 mi East 2.3 mph - N/A   Scattered Clouds
8:00 AM 49 °F - 47 °F 88% 30.11 in 5 mi East 2.2 mph - -   Mist
8:00 AM 48.2 °F - 46.4 °F 93% 30.09 in 5.0 mi ESE 3.5 mph - N/A   Mostly Cloudy
8:30 AM 50.0 °F - 46.4 °F 87% 30.09 in 5.0 mi East 3.5 mph - N/A   Mostly Cloudy
9:00 AM 50.0 °F - 46.4 °F 87% 30.09 in 5.0 mi East 3.5 mph - N/A   Mostly Cloudy
9:30 AM 53.6 °F - 48.2 °F 82% 30.09 in 6.2 mi SE 4.6 mph - N/A   Scattered Clouds
10:00 AM 53.6 °F - 48.2 °F 82% 30.09 in 6.2 mi Variable 2.3 mph - N/A   Mostly Cloudy
10:30 AM 57.2 °F - 48.2 °F 72% 30.09 in 6.2 mi South 5.8 mph - N/A   Mostly Cloudy
11:00 AM 59.0 °F - 50.0 °F 72% 30.09 in 6.2 mi SSE 4.6 mph - N/A   Mostly Cloudy
11:30 AM 60.8 °F - 48.2 °F 63% 30.06 in 6.2 mi Variable 3.5 mph - N/A   Scattered Clouds
12:00 PM 60.8 °F - 48.2 °F 63% 30.06 in 6.2 mi SSE 5.8 mph - N/A   Scattered Clouds
12:30 PM 62.6 °F - 48.2 °F 59% 30.06 in 6.2 mi East 6.9 mph - N/A   Mostly Cloudy
1:00 PM 64.4 °F - 50.0 °F 59% 30.04 in 6.2 mi East 9.2 mph - N/A   Mostly Cloudy
1:30 PM 62.6 °F - 50.0 °F 63% 30.04 in 6.2 mi East 10.4 mph - N/A   Scattered Clouds
2:00 PM 62 °F - 47 °F 48% 30.03 in 19 mi East 8.9 mph - -   Partly Cloudy
2:00 PM 62.6 °F - 48.2 °F 59% 30.04 in 6.2 mi ESE 5.8 mph - N/A   Scattered Clouds
2:30 PM 62.6 °F - 48.2 °F 59% 30.04 in 6.2 mi East 4.6 mph - N/A   Mostly Cloudy
3:00 PM 64.4 °F - 44.6 °F 49% 30.04 in 6.2 mi East 3.5 mph - N/A   Scattered Clouds
3:30 PM 66.2 °F - 46.4 °F 49% 30.01 in - East 2.3 mph - N/A   Clear
4:00 PM 64.4 °F - 44.6 °F 49% 30.01 in - SE 4.6 mph - N/A   Clear
4:30 PM 68.0 °F - 46.4 °F 46% 30.01 in - ESE 4.6 mph - N/A   Clear
5:00 PM 66.2 °F - 44.6 °F 46% 30.01 in - East 2.3 mph - N/A   Clear
5:30 PM 66.2 °F - 42.8 °F 43% 30.01 in - East 5.8 mph - N/A   Clear
6:00 PM 66.2 °F - 46.4 °F 49% 30.01 in - East 9.2 mph - N/A   Clear
6:30 PM 66.2 °F - 44.6 °F 46% 29.98 in - East 12.7 mph - N/A   Clear
7:00 PM 66.2 °F - 46.4 °F 49% 29.98 in - East 10.4 mph - N/A   Clear
7:30 PM 64.4 °F - 46.4 °F 52% 29.98 in - ESE 9.2 mph - N/A   Clear
8:00 PM 62 °F - 46 °F 45% 29.99 in 31 mi East 8.9 mph - -   Scattered Clouds
8:00 PM 62.6 °F - 46.4 °F 55% 30.01 in - ESE 9.2 mph - N/A   Clear
8:30 PM 59.0 °F - 46.4 °F 63% 29.98 in - East 8.1 mph - N/A   Clear
9:00 PM 57.2 °F - 46.4 °F 67% 30.01 in - East 9.2 mph - N/A   Clear
9:30 PM 59.0 °F - 46.4 °F 63% 30.01 in - ESE 10.4 mph - N/A   Clear
10:00 PM 57.2 °F - 46.4 °F 67% 30.01 in - ESE 10.4 mph - N/A   Clear
10:30 PM 53.6 °F - 46.4 °F 77% 30.01 in - ESE 9.2 mph - N/A   Clear
11:00 PM 51.8 °F - 44.6 °F 76% 30.01 in - SE 8.1 mph - N/A   Clear
11:30 PM 51.8 °F - 44.6 °F 76% 30.01 in - SSE 5.8 mph - N/A   Clear